owner,sensor,date,latitude,longitude,vertical_datum,mass_concentration_of_oxygen_in_sea_water,qcFlag 
DISL,ioos:station:DISL:DISL:1,2015-10-01T00:00:00Z,30.2513,-88.0778,2.25,2.1,1111122 
DISL,ioos:station:DISL:DISL:1,2015-10-01T00:30:00Z,30.2513,-88.0778,2.265,2.29,1111122 
DISL,ioos:station:DISL:DISL:1,2015-10-01T01:00:00Z,30.2513,-88.0778,2.268,2.08,1111122 
DISL,ioos:station:DISL:DISL:1,2015-10-01T01:30:00Z,30.2513,-88.0778,2.308,1.9,1111122 
DISL,ioos:station:DISL:DISL:1,2015-10-01T02:00:00Z,30.2513,-88.0778,2.342,1.82,1111122 
DISL,ioos:station:DISL:DISL:1,2015-10-01T02:30:00Z,30.2513,-88.0778,2.337,1.97,1111122 
DISL,ioos:station:DISL:DISL:1,2015-10-01T03:00:00Z,30.2513,-88.0778,2.358,1.97,1111122 
DISL,ioos:station:DISL:DISL:1,2015-10-01T03:30:00Z,30.2513,-88.0778,2.368,1.99,1111122 
DISL,ioos:station:DISL:DISL:1,2015-10-01T04:00:00Z,30.2513,-88.0778,2.372,1.94,1111122 
DISL,ioos:station:DISL:DISL:1,2015-10-01T04:30:00Z,30.2513,-88.0778,2.385,1.88,1111122 
DISL,ioos:station:DISL:DISL:1,2015-10-01T05:00:00Z,30.2513,-88.0778,2.348,1.87,1111122 
DISL,ioos:station:DISL:DISL:1,2015-10-01T05:30:00Z,30.2513,-88.0778,2.379,1.84,1111122 
DISL,ioos:station:DISL:DISL:1,2015-10-01T06:00:00Z,30.2513,-88.0778,2.427,1.95,1111122 
DISL,ioos:station:DISL:DISL:1,2015-10-01T06:30:00Z,30.2513,-88.0778,2.278,1.82,1111122 
DISL,ioos:station:DISL:DISL:1,2015-10-01T07:00:00Z,30.2513,-88.0778,2.328,1.83,1111122 
DISL,ioos:station:DISL:DISL:1,2015-10-01T07:30:00Z,30.2513,-88.0778,2.325,1.87,1111122 
DISL,ioos:station:DISL:DISL:1,2015-10-01T08:00:00Z,30.2513,-88.0778,2.31,2.0,1111122 
DISL,ioos:station:DISL:DISL:1,2015-10-01T08:30:00Z,30.2513,-88.0778,2.277,1.96,1111122 
DISL,ioos:station:DISL:DISL:1,2015-10-01T09:00:00Z,30.2513,-88.0778,2.248,1.96,1111122 
DISL,ioos:station:DISL:DISL:1,2015-10-01T09:30:00Z,30.2513,-88.0778,2.222,1.92,1111122 
DISL,ioos:station:DISL:DISL:1,2015-10-01T10:00:00Z,30.2513,-88.0778,2.101,1.8,1111122 
DISL,ioos:station:DISL:DISL:1,2015-10-01T10:30:00Z,30.2513,-88.0778,2.011,1.89,1111122 
DISL,ioos:station:DISL:DISL:1,2015-10-01T11:00:00Z,30.2513,-88.0778,2.117,1.92,1111122 
DISL,ioos:station:DISL:DISL:1,2015-10-01T11:30:00Z,30.2513,-88.0778,2.074,1.87,1111122 
DISL,ioos:station:DISL:DISL:1,2015-10-01T12:00:00Z,30.2513,-88.0778,2.119,1.82,1111122 
DISL,ioos:station:DISL:DISL:1,2015-10-01T12:30:00Z,30.2513,-88.0778,2.046,1.88,1111122 
DISL,ioos:station:DISL:DISL:1,2015-10-01T13:00:00Z,30.2513,-88.0778,2.021,1.94,1111122 
DISL,ioos:station:DISL:DISL:1,2015-10-01T13:30:00Z,30.2513,-88.0778,2.017,2.05,1111122 
DISL,ioos:station:DISL:DISL:1,2015-10-01T14:00:00Z,30.2513,-88.0778,1.977,1.98,1111122 
DISL,ioos:station:DISL:DISL:1,2015-10-01T14:30:00Z,30.2513,-88.0778,1.999,1.95,1111122 
DISL,ioos:station:DISL:DISL:1,2015-10-01T15:00:00Z,30.2513,-88.0778,1.982,1.98,1111122 
DISL,ioos:station:DISL:DISL:1,2015-10-01T15:30:00Z,30.2513,-88.0778,1.985,2.0,1111122 
DISL,ioos:station:DISL:DISL:1,2015-10-01T16:00:00Z,30.2513,-88.0778,1.981,2.01,1111122 
DISL,ioos:station:DISL:DISL:1,2015-10-01T16:30:00Z,30.2513,-88.0778,1.99,1.98,1111122 
DISL,ioos:station:DISL:DISL:1,2015-10-01T17:00:00Z,30.2513,-88.0778,1.976,1.92,1111122 
DISL,ioos:station:DISL:DISL:1,2015-10-01T17:30:00Z,30.2513,-88.0778,1.984,1.93,1111122 
DISL,ioos:station:DISL:DISL:1,2015-10-01T18:00:00Z,30.2513,-88.0778,1.99,1.88,1111122 
DISL,ioos:station:DISL:DISL:1,2015-10-01T18:30:00Z,30.2513,-88.0778,1.994,1.81,1111122 
DISL,ioos:station:DISL:DISL:1,2015-10-01T19:00:00Z,30.2513,-88.0778,2.021,1.74,1111122 
DISL,ioos:station:DISL:DISL:1,2015-10-01T19:30:00Z,30.2513,-88.0778,2.042,1.8,1111122 
DISL,ioos:station:DISL:DISL:1,2015-10-01T20:00:00Z,30.2513,-88.0778,2.01,1.88,1111122 
DISL,ioos:station:DISL:DISL:1,2015-10-01T20:30:00Z,30.2513,-88.0778,2.046,1.89,1111122 
DISL,ioos:station:DISL:DISL:1,2015-10-01T21:00:00Z,30.2513,-88.0778,2.037,1.9,1111122 
DISL,ioos:station:DISL:DISL:1,2015-10-01T21:30:00Z,30.2513,-88.0778,2.02,2.19,1111122 
DISL,ioos:station:DISL:DISL:1,2015-10-01T22:00:00Z,30.2513,-88.0778,2.112,2.26,1111122 
DISL,ioos:station:DISL:DISL:1,2015-10-01T22:30:00Z,30.2513,-88.0778,2.142,2.38,1111122 
DISL,ioos:station:DISL:DISL:1,2015-10-01T23:00:00Z,30.2513,-88.0778,2.124,2.37,1111122 
DISL,ioos:station:DISL:DISL:1,2015-10-01T23:30:00Z,30.2513,-88.0778,2.101,2.24,1111122 
DISL,ioos:station:DISL:DISL:1,2015-10-02T00:00:00Z,30.2513,-88.0778,2.11,2.43,1111122 
DISL,ioos:station:DISL:DISL:1,2015-10-02T00:30:00Z,30.2513,-88.0778,2.138,2.27,1111122 
DISL,ioos:station:DISL:DISL:1,2015-10-02T01:00:00Z,30.2513,-88.0778,2.12,2.09,1111122 
DISL,ioos:station:DISL:DISL:1,2015-10-02T01:30:00Z,30.2513,-88.0778,2.128,2.37,1111122 
DISL,ioos:station:DISL:DISL:1,2015-10-02T02:00:00Z,30.2513,-88.0778,2.147,2.1,1111122 
DISL,ioos:station:DISL:DISL:1,2015-10-02T02:30:00Z,30.2513,-88.0778,2.191,2.14,1111122 
DISL,ioos:station:DISL:DISL:1,2015-10-02T03:00:00Z,30.2513,-88.0778,2.204,2.21,1111122 
DISL,ioos:station:DISL:DISL:1,2015-10-02T03:30:00Z,30.2513,-88.0778,2.146,1.69,1111122 
DISL,ioos:station:DISL:DISL:1,2015-10-02T04:00:00Z,30.2513,-88.0778,2.241,1.94,1111122 
DISL,ioos:station:DISL:DISL:1,2015-10-02T04:30:00Z,30.2513,-88.0778,2.311,1.97,1111122 
DISL,ioos:station:DISL:DISL:1,2015-10-02T05:00:00Z,30.2513,-88.0778,2.268,2.07,1111122 
DISL,ioos:station:DISL:DISL:1,2015-10-02T05:30:00Z,30.2513,-88.0778,2.334,1.69,1111122 
DISL,ioos:station:DISL:DISL:1,2015-10-02T06:00:00Z,30.2513,-88.0778,2.265,1.95,1111122 
DISL,ioos:station:DISL:DISL:1,2015-10-02T06:30:00Z,30.2513,-88.0778,2.282,1.92,1111122 
DISL,ioos:station:DISL:DISL:1,2015-10-02T07:00:00Z,30.2513,-88.0778,2.205,1.98,1111122 
DISL,ioos:station:DISL:DISL:1,2015-10-02T07:30:00Z,30.2513,-88.0778,2.234,2.31,1111122 
DISL,ioos:station:DISL:DISL:1,2015-10-02T08:00:00Z,30.2513,-88.0778,2.221,2.15,1111122 
DISL,ioos:station:DISL:DISL:1,2015-10-02T08:30:00Z,30.2513,-88.0778,2.201,1.93,1111122 
DISL,ioos:station:DISL:DISL:1,2015-10-02T09:00:00Z,30.2513,-88.0778,2.207,2.1,1111122 
DISL,ioos:station:DISL:DISL:1,2015-10-02T09:30:00Z,30.2513,-88.0778,2.2,2.11,1111122 
DISL,ioos:station:DISL:DISL:1,2015-10-02T10:00:00Z,30.2513,-88.0778,2.171,2.0,1111122 
DISL,ioos:station:DISL:DISL:1,2015-10-02T10:30:00Z,30.2513,-88.0778,2.176,2.0,1111122 
DISL,ioos:station:DISL:DISL:1,2015-10-02T11:00:00Z,30.2513,-88.0778,2.114,2.07,1111122 
DISL,ioos:station:DISL:DISL:1,2015-10-02T11:30:00Z,30.2513,-88.0778,2.09,1.8,1111122 
DISL,ioos:station:DISL:DISL:1,2015-10-02T12:00:00Z,30.2513,-88.0778,2.054,1.95,1111122 
DISL,ioos:station:DISL:DISL:1,2015-10-02T12:30:00Z,30.2513,-88.0778,2.022,1.88,1111122 
DISL,ioos:station:DISL:DISL:1,2015-10-02T13:00:00Z,30.2513,-88.0778,1.998,1.83,1111122 
DISL,ioos:station:DISL:DISL:1,2015-10-02T13:30:00Z,30.2513,-88.0778,2.028,1.85,1111122 
DISL,ioos:station:DISL:DISL:1,2015-10-02T14:00:00Z,30.2513,-88.0778,1.961,1.82,1111122 
DISL,ioos:station:DISL:DISL:1,2015-10-02T14:30:00Z,30.2513,-88.0778,1.888,1.86,1111122 
DISL,ioos:station:DISL:DISL:1,2015-10-02T15:00:00Z,30.2513,-88.0778,1.9,1.93,1111122 
DISL,ioos:station:DISL:DISL:1,2015-10-02T15:30:00Z,30.2513,-88.0778,1.904,1.98,1111122 
DISL,ioos:station:DISL:DISL:1,2015-10-02T16:00:00Z,30.2513,-88.0778,1.889,1.94,1111122 
DISL,ioos:station:DISL:DISL:1,2015-10-02T16:30:00Z,30.2513,-88.0778,1.875,1.85,1111122 
DISL,ioos:station:DISL:DISL:1,2015-10-02T17:00:00Z,30.2513,-88.0778,1.896,1.99,1111122 
DISL,ioos:station:DISL:DISL:1,2015-10-02T17:30:00Z,30.2513,-88.0778,1.822,2.05,1111122 
DISL,ioos:station:DISL:DISL:1,2015-10-02T18:00:00Z,30.2513,-88.0778,1.829,2.16,1111122 
DISL,ioos:station:DISL:DISL:1,2015-10-02T18:30:00Z,30.2513,-88.0778,1.843,2.04,1111122 
DISL,ioos:station:DISL:DISL:1,2015-10-02T19:00:00Z,30.2513,-88.0778,1.853,2.04,1111122 
DISL,ioos:station:DISL:DISL:1,2015-10-02T19:30:00Z,30.2513,-88.0778,1.87,2.08,1111122 
DISL,ioos:station:DISL:DISL:1,2015-10-02T20:00:00Z,30.2513,-88.0778,1.881,1.78,1111122 
DISL,ioos:station:DISL:DISL:1,2015-10-02T20:30:00Z,30.2513,-88.0778,1.895,1.7,1111122 
DISL,ioos:station:DISL:DISL:1,2015-10-02T21:00:00Z,30.2513,-88.0778,1.921,6.82,1111122 
DISL,ioos:station:DISL:DISL:1,2015-10-02T21:30:00Z,30.2513,-88.0778,1.938,6.58,1111122 
DISL,ioos:station:DISL:DISL:1,2015-10-02T22:00:00Z,30.2513,-88.0778,1.922,7.05,1111122 
DISL,ioos:station:DISL:DISL:1,2015-10-02T22:30:00Z,30.2513,-88.0778,1.902,7.47,1111122 
DISL,ioos:station:DISL:DISL:1,2015-10-02T23:00:00Z,30.2513,-88.0778,1.969,7.53,1111122 
DISL,ioos:station:DISL:DISL:1,2015-10-02T23:30:00Z,30.2513,-88.0778,1.962,7.63,1111122 
DISL,ioos:station:DISL:DISL:1,2015-10-03T00:00:00Z,30.2513,-88.0778,1.986,7.53,1111122 
DISL,ioos:station:DISL:DISL:1,2015-10-03T00:30:00Z,30.2513,-88.0778,1.916,6.73,1111122 
DISL,ioos:station:DISL:DISL:1,2015-10-03T01:00:00Z,30.2513,-88.0778,1.989,6.94,1111122 
DISL,ioos:station:DISL:DISL:1,2015-10-03T01:30:00Z,30.2513,-88.0778,2.055,7.18,1111122 
DISL,ioos:station:DISL:DISL:1,2015-10-03T02:00:00Z,30.2513,-88.0778,2.009,6.61,1111122 
DISL,ioos:station:DISL:DISL:1,2015-10-03T02:30:00Z,30.2513,-88.0778,2.062,6.29,1111122 
DISL,ioos:station:DISL:DISL:1,2015-10-03T03:00:00Z,30.2513,-88.0778,2.093,6.94,1111122 
DISL,ioos:station:DISL:DISL:1,2015-10-03T03:30:00Z,30.2513,-88.0778,2.113,7.19,1111122 
DISL,ioos:station:DISL:DISL:1,2015-10-03T04:00:00Z,30.2513,-88.0778,2.152,7.2,1111122 
DISL,ioos:station:DISL:DISL:1,2015-10-03T04:30:00Z,30.2513,-88.0778,2.161,7.06,1111122 
DISL,ioos:station:DISL:DISL:1,2015-10-03T05:00:00Z,30.2513,-88.0778,2.177,7.14,1111122 
DISL,ioos:station:DISL:DISL:1,2015-10-03T05:30:00Z,30.2513,-88.0778,2.192,7.18,1111122 
DISL,ioos:station:DISL:DISL:1,2015-10-03T06:00:00Z,30.2513,-88.0778,2.188,7.17,1111122 
DISL,ioos:station:DISL:DISL:1,2015-10-03T06:30:00Z,30.2513,-88.0778,2.199,7.16,1111122 
DISL,ioos:station:DISL:DISL:1,2015-10-03T07:00:00Z,30.2513,-88.0778,2.237,7.17,1111122 
DISL,ioos:station:DISL:DISL:1,2015-10-03T07:30:00Z,30.2513,-88.0778,2.232,7.17,1111122 
DISL,ioos:station:DISL:DISL:1,2015-10-03T08:00:00Z,30.2513,-88.0778,2.215,6.99,1111122 
DISL,ioos:station:DISL:DISL:1,2015-10-03T08:30:00Z,30.2513,-88.0778,2.216,7.04,1111122 
DISL,ioos:station:DISL:DISL:1,2015-10-03T09:00:00Z,30.2513,-88.0778,2.194,7.11,1111122 
DISL,ioos:station:DISL:DISL:1,2015-10-03T09:30:00Z,30.2513,-88.0778,2.203,7.08,1111122 
DISL,ioos:station:DISL:DISL:1,2015-10-03T10:00:00Z,30.2513,-88.0778,2.184,7.07,1111122 
DISL,ioos:station:DISL:DISL:1,2015-10-03T10:30:00Z,30.2513,-88.0778,2.166,7.06,1111122 
DISL,ioos:station:DISL:DISL:1,2015-10-03T11:00:00Z,30.2513,-88.0778,2.149,7.02,1111122 
DISL,ioos:station:DISL:DISL:1,2015-10-03T11:30:00Z,30.2513,-88.0778,2.125,7.03,1111122 
DISL,ioos:station:DISL:DISL:1,2015-10-03T12:00:00Z,30.2513,-88.0778,2.109,7.02,1111122 
DISL,ioos:station:DISL:DISL:1,2015-10-03T12:30:00Z,30.2513,-88.0778,2.071,6.99,1111122 
DISL,ioos:station:DISL:DISL:1,2015-10-03T13:00:00Z,30.2513,-88.0778,2.054,7.0,1111122 
DISL,ioos:station:DISL:DISL:1,2015-10-03T13:30:00Z,30.2513,-88.0778,2.01,7.07,1111122 
DISL,ioos:station:DISL:DISL:1,2015-10-03T14:00:00Z,30.2513,-88.0778,1.987,7.02,1111122 
DISL,ioos:station:DISL:DISL:1,2015-10-03T14:30:00Z,30.2513,-88.0778,1.966,7.09,1111122 
DISL,ioos:station:DISL:DISL:1,2015-10-03T15:00:00Z,30.2513,-88.0778,1.946,7.18,1111122 
DISL,ioos:station:DISL:DISL:1,2015-10-03T15:30:00Z,30.2513,-88.0778,1.908,7.39,1111122 
DISL,ioos:station:DISL:DISL:1,2015-10-03T16:00:00Z,30.2513,-88.0778,1.887,7.49,1111122 
DISL,ioos:station:DISL:DISL:1,2015-10-03T16:30:00Z,30.2513,-88.0778,1.855,7.5,1111122 
DISL,ioos:station:DISL:DISL:1,2015-10-03T17:00:00Z,30.2513,-88.0778,1.868,7.53,1111122 
DISL,ioos:station:DISL:DISL:1,2015-10-03T17:30:00Z,30.2513,-88.0778,1.859,7.66,1111122 
DISL,ioos:station:DISL:DISL:1,2015-10-03T18:00:00Z,30.2513,-88.0778,1.816,7.61,1111122 
DISL,ioos:station:DISL:DISL:1,2015-10-03T18:30:00Z,30.2513,-88.0778,1.824,7.73,1111122 
DISL,ioos:station:DISL:DISL:1,2015-10-03T19:00:00Z,30.2513,-88.0778,1.823,7.72,1111122 
DISL,ioos:station:DISL:DISL:1,2015-10-03T19:30:00Z,30.2513,-88.0778,1.824,7.64,1111122 
DISL,ioos:station:DISL:DISL:1,2015-10-03T20:00:00Z,30.2513,-88.0778,1.821,7.65,1111122 
DISL,ioos:station:DISL:DISL:1,2015-10-03T20:30:00Z,30.2513,-88.0778,1.831,7.66,1111122 
DISL,ioos:station:DISL:DISL:1,2015-10-03T21:00:00Z,30.2513,-88.0778,1.818,7.73,1111122 
DISL,ioos:station:DISL:DISL:1,2015-10-03T21:30:00Z,30.2513,-88.0778,1.832,7.7,1111122 
DISL,ioos:station:DISL:DISL:1,2015-10-03T22:00:00Z,30.2513,-88.0778,1.83,8.04,1111122 
DISL,ioos:station:DISL:DISL:1,2015-10-03T22:30:00Z,30.2513,-88.0778,1.852,7.95,1111122 
DISL,ioos:station:DISL:DISL:1,2015-10-03T23:00:00Z,30.2513,-88.0778,1.848,7.79,1111122 
DISL,ioos:station:DISL:DISL:1,2015-10-03T23:30:00Z,30.2513,-88.0778,1.866,7.78,1111122 
DISL,ioos:station:DISL:DISL:1,2015-10-04T00:00:00Z,30.2513,-88.0778,1.871,7.64,1111122 
DISL,ioos:station:DISL:DISL:1,2015-10-04T00:30:00Z,30.2513,-88.0778,1.891,7.72,1111122 
DISL,ioos:station:DISL:DISL:1,2015-10-04T01:00:00Z,30.2513,-88.0778,1.887,7.82,1111122 
DISL,ioos:station:DISL:DISL:1,2015-10-04T01:30:00Z,30.2513,-88.0778,1.908,7.89,1111122 
DISL,ioos:station:DISL:DISL:1,2015-10-04T02:00:00Z,30.2513,-88.0778,1.919,7.26,1111122 
DISL,ioos:station:DISL:DISL:1,2015-10-04T02:30:00Z,30.2513,-88.0778,1.939,7.16,1111122 
DISL,ioos:station:DISL:DISL:1,2015-10-04T03:00:00Z,30.2513,-88.0778,1.954,7.26,1111122 
DISL,ioos:station:DISL:DISL:1,2015-10-04T03:30:00Z,30.2513,-88.0778,1.974,7.28,1111122 
DISL,ioos:station:DISL:DISL:1,2015-10-04T04:00:00Z,30.2513,-88.0778,2.008,7.47,1111122 
DISL,ioos:station:DISL:DISL:1,2015-10-04T04:30:00Z,30.2513,-88.0778,2.032,7.43,1111122 
DISL,ioos:station:DISL:DISL:1,2015-10-04T05:00:00Z,30.2513,-88.0778,2.058,7.41,1111122 
DISL,ioos:station:DISL:DISL:1,2015-10-04T05:30:00Z,30.2513,-88.0778,2.088,6.91,1111122 
DISL,ioos:station:DISL:DISL:1,2015-10-04T06:00:00Z,30.2513,-88.0778,2.116,6.87,1111122 
DISL,ioos:station:DISL:DISL:1,2015-10-04T06:30:00Z,30.2513,-88.0778,2.125,6.78,1111122 
DISL,ioos:station:DISL:DISL:1,2015-10-04T07:00:00Z,30.2513,-88.0778,2.139,6.72,1111122 
DISL,ioos:station:DISL:DISL:1,2015-10-04T07:30:00Z,30.2513,-88.0778,2.152,6.91,1111122 
DISL,ioos:station:DISL:DISL:1,2015-10-04T08:00:00Z,30.2513,-88.0778,2.153,7.0,1111122 
DISL,ioos:station:DISL:DISL:1,2015-10-04T08:30:00Z,30.2513,-88.0778,2.15,7.35,1111122 
DISL,ioos:station:DISL:DISL:1,2015-10-04T09:00:00Z,30.2513,-88.0778,2.147,7.36,1111122 
DISL,ioos:station:DISL:DISL:1,2015-10-04T09:30:00Z,30.2513,-88.0778,2.126,7.31,1111122 
DISL,ioos:station:DISL:DISL:1,2015-10-04T10:00:00Z,30.2513,-88.0778,2.13,7.28,1111122 
DISL,ioos:station:DISL:DISL:1,2015-10-04T10:30:00Z,30.2513,-88.0778,2.117,7.24,1111122 
DISL,ioos:station:DISL:DISL:1,2015-10-04T11:00:00Z,30.2513,-88.0778,2.098,7.21,1111122 
DISL,ioos:station:DISL:DISL:1,2015-10-04T11:30:00Z,30.2513,-88.0778,2.102,7.2,1111122 
DISL,ioos:station:DISL:DISL:1,2015-10-04T12:00:00Z,30.2513,-88.0778,2.08,7.19,1111122 
DISL,ioos:station:DISL:DISL:1,2015-10-04T12:30:00Z,30.2513,-88.0778,2.064,7.17,1111122 
DISL,ioos:station:DISL:DISL:1,2015-10-04T13:00:00Z,30.2513,-88.0778,2.051,7.16,1111122 
DISL,ioos:station:DISL:DISL:1,2015-10-04T13:30:00Z,30.2513,-88.0778,1.962,7.14,1111122 
DISL,ioos:station:DISL:DISL:1,2015-10-04T14:00:00Z,30.2513,-88.0778,2.011,7.14,1111122 
DISL,ioos:station:DISL:DISL:1,2015-10-04T14:30:00Z,30.2513,-88.0778,2.0,7.15,1111122 
DISL,ioos:station:DISL:DISL:1,2015-10-04T15:00:00Z,30.2513,-88.0778,1.957,7.16,1111122 
DISL,ioos:station:DISL:DISL:1,2015-10-04T15:30:00Z,30.2513,-88.0778,1.931,7.2,1111122 
DISL,ioos:station:DISL:DISL:1,2015-10-04T16:00:00Z,30.2513,-88.0778,1.902,7.27,1111122 
DISL,ioos:station:DISL:DISL:1,2015-10-04T16:30:00Z,30.2513,-88.0778,1.883,7.29,1111122 
DISL,ioos:station:DISL:DISL:1,2015-10-04T17:00:00Z,30.2513,-88.0778,1.864,7.36,1111122 
DISL,ioos:station:DISL:DISL:1,2015-10-04T17:30:00Z,30.2513,-88.0778,1.842,7.47,1111122 
DISL,ioos:station:DISL:DISL:1,2015-10-04T18:00:00Z,30.2513,-88.0778,1.844,7.5,1111122 
DISL,ioos:station:DISL:DISL:1,2015-10-04T18:30:00Z,30.2513,-88.0778,1.853,7.56,1111122 
DISL,ioos:station:DISL:DISL:1,2015-10-04T19:00:00Z,30.2513,-88.0778,1.801,7.66,1111122 
DISL,ioos:station:DISL:DISL:1,2015-10-04T19:30:00Z,30.2513,-88.0778,1.789,8.69,1111122 
DISL,ioos:station:DISL:DISL:1,2015-10-04T20:00:00Z,30.2513,-88.0778,1.794,8.48,1111122 
DISL,ioos:station:DISL:DISL:1,2015-10-04T20:30:00Z,30.2513,-88.0778,1.83,8.57,1111122 
DISL,ioos:station:DISL:DISL:1,2015-10-04T21:00:00Z,30.2513,-88.0778,1.829,8.34,1111122 
DISL,ioos:station:DISL:DISL:1,2015-10-04T21:30:00Z,30.2513,-88.0778,1.831,8.1,1111122 
DISL,ioos:station:DISL:DISL:1,2015-10-04T22:00:00Z,30.2513,-88.0778,1.882,8.22,1111122 
DISL,ioos:station:DISL:DISL:1,2015-10-04T22:30:00Z,30.2513,-88.0778,1.859,8.14,1111122 
DISL,ioos:station:DISL:DISL:1,2015-10-04T23:00:00Z,30.2513,-88.0778,1.854,8.05,1111122 
DISL,ioos:station:DISL:DISL:1,2015-10-04T23:30:00Z,30.2513,-88.0778,1.875,7.68,1111122 
DISL,ioos:station:DISL:DISL:1,2015-10-05T00:00:00Z,30.2513,-88.0778,1.915,7.73,1111122 
DISL,ioos:station:DISL:DISL:1,2015-10-05T00:30:00Z,30.2513,-88.0778,1.934,7.96,1111122 
DISL,ioos:station:DISL:DISL:1,2015-10-05T01:00:00Z,30.2513,-88.0778,1.944,8.02,1111122 
DISL,ioos:station:DISL:DISL:1,2015-10-05T01:30:00Z,30.2513,-88.0778,1.958,8.0,1111122 
DISL,ioos:station:DISL:DISL:1,2015-10-05T02:00:00Z,30.2513,-88.0778,1.968,8.17,1111122 
DISL,ioos:station:DISL:DISL:1,2015-10-05T02:30:00Z,30.2513,-88.0778,1.982,8.15,1111122 
DISL,ioos:station:DISL:DISL:1,2015-10-05T03:00:00Z,30.2513,-88.0778,2.012,8.11,1111122 
DISL,ioos:station:DISL:DISL:1,2015-10-05T03:30:00Z,30.2513,-88.0778,2.048,7.97,1111122 
DISL,ioos:station:DISL:DISL:1,2015-10-05T04:00:00Z,30.2513,-88.0778,2.064,7.94,1111122 
DISL,ioos:station:DISL:DISL:1,2015-10-05T04:30:00Z,30.2513,-88.0778,2.116,7.89,1111122 
DISL,ioos:station:DISL:DISL:1,2015-10-05T05:00:00Z,30.2513,-88.0778,2.084,7.88,1111122 
DISL,ioos:station:DISL:DISL:1,2015-10-05T05:30:00Z,30.2513,-88.0778,2.079,7.31,1111122 
DISL,ioos:station:DISL:DISL:1,2015-10-05T06:00:00Z,30.2513,-88.0778,2.086,6.93,1111122 
DISL,ioos:station:DISL:DISL:1,2015-10-05T06:30:00Z,30.2513,-88.0778,2.097,6.31,1111122 
DISL,ioos:station:DISL:DISL:1,2015-10-05T07:00:00Z,30.2513,-88.0778,2.118,6.93,1111122 
DISL,ioos:station:DISL:DISL:1,2015-10-05T07:30:00Z,30.2513,-88.0778,2.119,7.3,1111122 
DISL,ioos:station:DISL:DISL:1,2015-10-05T08:00:00Z,30.2513,-88.0778,2.107,7.37,1111122 
DISL,ioos:station:DISL:DISL:1,2015-10-05T08:30:00Z,30.2513,-88.0778,2.107,7.35,1111122 
DISL,ioos:station:DISL:DISL:1,2015-10-05T09:00:00Z,30.2513,-88.0778,2.101,7.44,1111122 
DISL,ioos:station:DISL:DISL:1,2015-10-05T09:30:00Z,30.2513,-88.0778,2.132,7.52,1111122 
DISL,ioos:station:DISL:DISL:1,2015-10-05T10:00:00Z,30.2513,-88.0778,2.047,7.48,1111122 
DISL,ioos:station:DISL:DISL:1,2015-10-05T10:30:00Z,30.2513,-88.0778,2.18,7.51,1111122 
DISL,ioos:station:DISL:DISL:1,2015-10-05T11:00:00Z,30.2513,-88.0778,2.14,7.51,1111122 
DISL,ioos:station:DISL:DISL:1,2015-10-05T11:30:00Z,30.2513,-88.0778,2.01,7.57,1111122 
DISL,ioos:station:DISL:DISL:1,2015-10-05T12:00:00Z,30.2513,-88.0778,2.156,7.58,1111122 
DISL,ioos:station:DISL:DISL:1,2015-10-05T12:30:00Z,30.2513,-88.0778,2.107,7.56,1111122 
DISL,ioos:station:DISL:DISL:1,2015-10-05T13:00:00Z,30.2513,-88.0778,2.098,7.62,1111122 
DISL,ioos:station:DISL:DISL:1,2015-10-05T13:30:00Z,30.2513,-88.0778,2.044,7.47,1111122 
DISL,ioos:station:DISL:DISL:1,2015-10-05T14:00:00Z,30.2513,-88.0778,2.0,7.5,1111122 
DISL,ioos:station:DISL:DISL:1,2015-10-05T14:30:00Z,30.2513,-88.0778,2.0,7.53,1111122 
DISL,ioos:station:DISL:DISL:1,2015-10-05T15:00:00Z,30.2513,-88.0778,1.982,7.59,1111122 
DISL,ioos:station:DISL:DISL:1,2015-10-05T15:30:00Z,30.2513,-88.0778,1.949,7.64,1111122 
DISL,ioos:station:DISL:DISL:1,2015-10-05T16:00:00Z,30.2513,-88.0778,1.93,7.91,1111122 
DISL,ioos:station:DISL:DISL:1,2015-10-05T16:30:00Z,30.2513,-88.0778,1.905,7.98,1111122 
DISL,ioos:station:DISL:DISL:1,2015-10-05T17:00:00Z,30.2513,-88.0778,1.896,7.99,1111122 
DISL,ioos:station:DISL:DISL:1,2015-10-05T17:30:00Z,30.2513,-88.0778,1.876,8.19,1111122 
DISL,ioos:station:DISL:DISL:1,2015-10-05T18:00:00Z,30.2513,-88.0778,1.859,8.25,1111122 
DISL,ioos:station:DISL:DISL:1,2015-10-05T18:30:00Z,30.2513,-88.0778,1.852,8.47,1111122 
DISL,ioos:station:DISL:DISL:1,2015-10-05T19:00:00Z,30.2513,-88.0778,1.807,8.63,1111122 
DISL,ioos:station:DISL:DISL:1,2015-10-05T19:30:00Z,30.2513,-88.0778,1.835,8.72,1111122 
DISL,ioos:station:DISL:DISL:1,2015-10-05T20:00:00Z,30.2513,-88.0778,1.835,8.56,1111122 
DISL,ioos:station:DISL:DISL:1,2015-10-05T20:30:00Z,30.2513,-88.0778,1.834,8.46,1111122 
DISL,ioos:station:DISL:DISL:1,2015-10-05T21:00:00Z,30.2513,-88.0778,1.84,8.17,1111122 
DISL,ioos:station:DISL:DISL:1,2015-10-05T21:30:00Z,30.2513,-88.0778,1.848,8.0,1111122 
DISL,ioos:station:DISL:DISL:1,2015-10-05T22:00:00Z,30.2513,-88.0778,1.846,7.95,1111122 
DISL,ioos:station:DISL:DISL:1,2015-10-05T22:30:00Z,30.2513,-88.0778,1.877,7.87,1111122 
DISL,ioos:station:DISL:DISL:1,2015-10-05T23:00:00Z,30.2513,-88.0778,1.859,7.94,1111122 
DISL,ioos:station:DISL:DISL:1,2015-10-05T23:30:00Z,30.2513,-88.0778,1.899,7.68,1111122 
DISL,ioos:station:DISL:DISL:1,2015-10-06T00:00:00Z,30.2513,-88.0778,1.886,7.83,1111122 
DISL,ioos:station:DISL:DISL:1,2015-10-06T00:30:00Z,30.2513,-88.0778,1.952,7.55,1111122 
DISL,ioos:station:DISL:DISL:1,2015-10-06T01:00:00Z,30.2513,-88.0778,1.915,7.43,1111122 
DISL,ioos:station:DISL:DISL:1,2015-10-06T01:30:00Z,30.2513,-88.0778,1.917,7.03,1111122 
DISL,ioos:station:DISL:DISL:1,2015-10-06T02:00:00Z,30.2513,-88.0778,1.936,7.22,1111122 
DISL,ioos:station:DISL:DISL:1,2015-10-06T02:30:00Z,30.2513,-88.0778,1.949,7.4,1111122 
DISL,ioos:station:DISL:DISL:1,2015-10-06T03:00:00Z,30.2513,-88.0778,1.974,7.53,1111122 
DISL,ioos:station:DISL:DISL:1,2015-10-06T03:30:00Z,30.2513,-88.0778,1.995,7.92,1111122 
DISL,ioos:station:DISL:DISL:1,2015-10-06T04:00:00Z,30.2513,-88.0778,2.026,7.61,1111122 
DISL,ioos:station:DISL:DISL:1,2015-10-06T04:30:00Z,30.2513,-88.0778,2.047,7.54,1111122 
DISL,ioos:station:DISL:DISL:1,2015-10-06T05:00:00Z,30.2513,-88.0778,2.07,7.43,1111122 
DISL,ioos:station:DISL:DISL:1,2015-10-06T05:30:00Z,30.2513,-88.0778,2.075,7.61,1111122 
DISL,ioos:station:DISL:DISL:1,2015-10-06T06:00:00Z,30.2513,-88.0778,2.112,7.48,1111122 
DISL,ioos:station:DISL:DISL:1,2015-10-06T06:30:00Z,30.2513,-88.0778,2.127,7.2,1111122 
DISL,ioos:station:DISL:DISL:1,2015-10-06T07:00:00Z,30.2513,-88.0778,2.146,6.71,1111122 
DISL,ioos:station:DISL:DISL:1,2015-10-06T07:30:00Z,30.2513,-88.0778,2.155,6.54,1111122 
DISL,ioos:station:DISL:DISL:1,2015-10-06T08:00:00Z,30.2513,-88.0778,2.174,6.81,1111122 
DISL,ioos:station:DISL:DISL:1,2015-10-06T08:30:00Z,30.2513,-88.0778,2.198,6.64,1111122 
DISL,ioos:station:DISL:DISL:1,2015-10-06T09:00:00Z,30.2513,-88.0778,2.194,6.83,1111122 
DISL,ioos:station:DISL:DISL:1,2015-10-06T09:30:00Z,30.2513,-88.0778,2.167,7.07,1111122 
DISL,ioos:station:DISL:DISL:1,2015-10-06T10:00:00Z,30.2513,-88.0778,2.212,7.1,1111122 
DISL,ioos:station:DISL:DISL:1,2015-10-06T10:30:00Z,30.2513,-88.0778,2.212,7.16,1111122 
DISL,ioos:station:DISL:DISL:1,2015-10-06T11:00:00Z,30.2513,-88.0778,2.204,7.2,1111122 
DISL,ioos:station:DISL:DISL:1,2015-10-06T11:30:00Z,30.2513,-88.0778,2.184,7.1,1111122 
DISL,ioos:station:DISL:DISL:1,2015-10-06T12:00:00Z,30.2513,-88.0778,2.199,7.18,1111122 
DISL,ioos:station:DISL:DISL:1,2015-10-06T12:30:00Z,30.2513,-88.0778,2.164,7.4,1111122 
DISL,ioos:station:DISL:DISL:1,2015-10-06T13:00:00Z,30.2513,-88.0778,2.172,7.57,1111122 
DISL,ioos:station:DISL:DISL:1,2015-10-06T13:30:00Z,30.2513,-88.0778,2.158,7.63,1111122 
DISL,ioos:station:DISL:DISL:1,2015-10-06T14:00:00Z,30.2513,-88.0778,2.136,7.73,1111122 
DISL,ioos:station:DISL:DISL:1,2015-10-06T14:30:00Z,30.2513,-88.0778,2.126,7.75,1111122 
DISL,ioos:station:DISL:DISL:1,2015-10-06T15:00:00Z,30.2513,-88.0778,2.047,7.74,1111122 
DISL,ioos:station:DISL:DISL:1,2015-10-06T15:30:00Z,30.2513,-88.0778,1.943,7.93,1111122 